Wilmington, NC

6:24 AM EDT on June 24, 2017 (GMT -0400)
Wilmington International

Weather History for KILM - April, 2013

Change the Weather History Date:

Thursday, April 11, 2013

  Actual Average Record
Temperature  
Mean Temperature 72 °F 62 °F  
Max Temperature 82 °F 73 °F 88 °F (1908)
Min Temperature 62 °F 51 °F 34 °F (1989)
Degree Days  
Heating Degree Days 0 5  
Month to date heating degree days 76 66  
Since 1 July heating degree days 2353 2318  
Cooling Degree Days 7 2  
Month to date cooling degree days 18 16  
Year to date cooling degree days 32 37  
Growing Degree Days 22 (Base 50)    
Moisture  
Dew Point 64 °F    
Average Humidity 74    
Maximum Humidity 93    
Minimum Humidity 54    
Precipitation  
Precipitation 0.00 in 0.09 in 1.86 in (1956)
Month to date precipitation 1.00 1.08  
Year to date precipitation 10.71 12.67  
Snow  
Snow 0.00 in 0.00 in T in (1989)
Month to date snowfall 0.0 0.0  
Since 1 July snowfall T 1.7  
Snow Depth 0.00 in    
Sea Level Pressure  
Sea Level Pressure 29.96 in    
Wind  
Wind Speed 10 mph (SSW)    
Max Wind Speed 23 mph    
Max Gust Speed 29 mph    
Visibility 10 miles    
Events      
T = Trace of Precipitation, MM = Missing Value Source: NWS Daily Summary

Daily Weather History Graph

Daily Weather History Graph

Search for Another Location

Airport or City:

Trip Planner

Search our weather history database for the weather conditions in past years. The results will help you decide how hot, cold, wet, or windy it might be!

Date:

Astronomy

Apr. 11, 2013 Rise Set
Actual Time 6:45 AM EDT 7:40 PM EDT
Civil Twilight 6:19 AM EDT 8:06 PM EDT
Nautical Twilight 5:49 AM EDT 8:36 PM EDT
Astronomical Twilight 5:18 AM EDT 9:07 PM EDT
Moon 7:19 AM EDT (4/11) 9:07 PM EDT (4/11)
Length of Visible Light 13h 46m
Length of Day
12h 55m
New Moon, 2% of the Moon is Illuminated
Apr 11
New Moon
Apr 18
First Quarter
Apr 25
Full
May 2
Last Quarter
May 9
New

Hourly Weather History & Observations

Time (EDT) Temp. Heat Index Dew Point Humidity Pressure Visibility Wind Dir Wind Speed Gust Speed Precip Events Conditions
12:53 AM 64.9 °F - 60.1 °F 84% 30.04 in 10.0 mi SSW 6.9 mph - N/A   Clear
1:53 AM 64.9 °F - 61.0 °F 87% 30.03 in 10.0 mi SSW 5.8 mph - N/A   Clear
2:53 AM 63.0 °F - 61.0 °F 93% 30.02 in 10.0 mi SSW 5.8 mph - N/A   Clear
3:53 AM 63.0 °F - 61.0 °F 93% 30.00 in 10.0 mi SSW 4.6 mph - N/A   Clear
4:53 AM 64.9 °F - 62.1 °F 90% 30.01 in 10.0 mi SSW 6.9 mph - N/A   Clear
5:53 AM 64.0 °F - 62.1 °F 93% 30.01 in 10.0 mi SSW 4.6 mph - N/A   Clear
6:53 AM 64.0 °F - 62.1 °F 93% 30.01 in 10.0 mi Calm Calm - N/A   Scattered Clouds
7:53 AM 66.0 °F - 64.0 °F 93% 30.04 in 10.0 mi Calm Calm - N/A   Clear
8:53 AM 71.1 °F - 64.9 °F 81% 30.04 in 10.0 mi SW 9.2 mph - N/A   Mostly Cloudy
9:53 AM 73.0 °F - 66.0 °F 79% 30.04 in 10.0 mi SW 9.2 mph - 0.00 in   Overcast
10:53 AM 75.9 °F - 62.1 °F 62% 30.03 in 10.0 mi WSW 10.4 mph - N/A   Mostly Cloudy
11:53 AM 80.1 °F 81.7 °F 64.0 °F 58% 30.01 in 10.0 mi SSW 12.7 mph - N/A   Overcast
12:53 PM 80.6 °F 81.8 °F 62.6 °F 54% 29.99 in 10.0 mi SSW 18.4 mph 26.5 mph N/A   Clear
1:53 PM 80.1 °F 81.7 °F 64.0 °F 58% 29.97 in 10.0 mi South 17.3 mph 24.2 mph N/A   Mostly Cloudy
2:53 PM 81.0 °F 82.7 °F 64.9 °F 58% 29.95 in 10.0 mi SSW 13.8 mph 24.2 mph N/A   Partly Cloudy
3:53 PM 78.1 °F - 64.9 °F 64% 29.92 in 10.0 mi South 18.4 mph 27.6 mph N/A   Scattered Clouds
4:53 PM 77.0 °F - 66.0 °F 69% 29.91 in 10.0 mi SSW 11.5 mph 24.2 mph N/A   Mostly Cloudy
5:51 PM 77.0 °F - 66.2 °F 69% 29.90 in 10.0 mi SSW 16.1 mph 24.2 mph N/A   Mostly Cloudy
5:53 PM 77.0 °F - 66.0 °F 69% 29.90 in 10.0 mi SSW 13.8 mph 24.2 mph N/A   Scattered Clouds
6:53 PM 75.0 °F - 66.0 °F 73% 29.90 in 10.0 mi SSW 12.7 mph 20.7 mph N/A   Mostly Cloudy
7:06 PM 73.4 °F - 66.2 °F 78% 29.90 in 10.0 mi SSW 11.5 mph 24.2 mph N/A   Mostly Cloudy
7:17 PM 73.4 °F - 66.2 °F 78% 29.90 in 10.0 mi SSW 9.2 mph 19.6 mph N/A   Scattered Clouds
7:46 PM 73.4 °F - 66.2 °F 78% 29.91 in 10.0 mi SSW 13.8 mph - N/A   Mostly Cloudy
7:53 PM 73.0 °F - 66.0 °F 79% 29.91 in 10.0 mi SSW 16.1 mph 23.0 mph N/A   Mostly Cloudy
8:32 PM 71.6 °F - 64.4 °F 78% 29.91 in 10.0 mi SSW 15.0 mph - N/A   Scattered Clouds
8:53 PM 71.1 °F - 64.0 °F 78% 29.91 in 10.0 mi South 9.2 mph - N/A   Partly Cloudy
9:53 PM 72.0 °F - 64.9 °F 78% 29.91 in 10.0 mi South 10.4 mph - N/A   Scattered Clouds
10:53 PM 71.1 °F - 66.0 °F 84% 29.90 in 10.0 mi South 9.2 mph - N/A   Mostly Cloudy
11:32 PM 71.6 °F - 66.2 °F 83% 29.89 in 10.0 mi South 11.5 mph - N/A   Scattered Clouds
11:53 PM 71.1 °F - 66.0 °F 84% 29.89 in 10.0 mi South 12.7 mph - N/A   Clear